[[[{"header":{"parameterUnit":"kt","parameterCategory":2,"dx":1,"dy":1,"la1":30.253999710083008,"la2":30.299108505249023,"lo1":-89.0895004272461,"lo2":-89.04439544677734,"nx":28,"ny":28,"refTime":"2022-10-11T21:00:00:Z","depth":"0","parameterNumber":2,"parameterNumberName":"U-component_of_CURRENTS"},"data":[0.523,0.5304,0.5454,0.5555,0.5674,0.5692,0.5727,0.5795,0.5969,0.6167,0.6378,0.6667,0.7234,0.7721,0.7719,0.7552,0.6844,0.6776,0.6499,0.7041,0.7035,0.7029,0.6745,0.7072,0.707,0.5351,0.5338,0.5329,0.538,0.5501,0.5663,0.5846,0.5932,0.6087,0.6213,0.6203,0.6297,0.6588,0.6833,0.7325,0.774,0.8022,0.8274,0.8078,0.7519,0.7844,0.7032,0.6854,0.7756,0.7512,0.8007,0.8008,0.8008,0.8008,0.8008,0.8009,0.5616,0.5684,0.582,0.5996,0.6121,0.6242,0.6299,0.6406,0.6591,0.675,0.7119,0.7405,0.7929,0.8407,0.8412,0.8347,0.8028,0.8034,0.7875,0.7425,0.7003,0.8057,0.8601,0.8601,0.8601,0.8601,0.8601,0,0.5711,0.5821,0.5913,0.6092,0.6177,0.6326,0.6437,0.6541,0.6701,0.6888,0.7142,0.7373,0.7894,0.807,0.8436,0.8389,0.7635,0.8133,0.7834,0.7081,0.6685,0.6505,0.7272,0.7724,0.772,0.7716,0.7713,0.7712,0.5773,0.5822,0.603,0.6084,0.6127,0.628,0.6344,0.651,0.6548,0.6872,0.6927,0.7307,0.7456,0.7888,0.7811,0.7999,0.746,0.8017,0.7448,0.7299,0.7167,0.6679,0.6472,0.766,0.7667,0.7672,0.7676,0,0.5782,0.5808,0.592,0.6023,0.6071,0.6185,0.6377,0.6411,0.6541,0.667,0.673,0.6816,0.7053,0.705,0.7142,0.7001,0.6962,0.7208,0.729,0.7359,0.7207,0.7033,0.6939,0.6738,0.7665,0.7674,0.7681,0,0.5725,0.5795,0.5839,0.5907,0.6033,0.6075,0.6202,0.6227,0.63,0.6369,0.6287,0.6377,0.622,0.6383,0.6297,0.6531,0.6482,0.6394,0.6481,0.6376,0.6394,0.6153,0.5964,0.6089,0.6082,0.6076,0.6071,0,0.5648,0.5745,0.5812,0.5846,0.5927,0.5967,0.6016,0.5991,0.6036,0.6047,0.614,0.6002,0.6104,0.6015,0.6045,0.5839,0.6252,0.598,0.6278,0.631,0.6281,0.6302,0.6347,0.6063,0.6061,0.6058,0.6056,0,0.5581,0.565,0.5745,0.5834,0.5875,0.5907,0.5946,0.5948,0.5882,0.5861,0.5749,0.5667,0.5644,0.5462,0.5538,0.5409,0.5499,0.5525,0.5553,0.5652,0.567,0.6289,0.6588,0.6315,0.6004,0.5999,0.5995,0,0.5488,0.5619,0.5637,0.5717,0.577,0.575,0.575,0.5708,0.5633,0.5634,0.546,0.5434,0.5208,0.5248,0.5165,0.5203,0.531,0.5061,0.5404,0.5421,0.5609,0.5843,0.579,0.6498,0.5934,0.594,0.5945,0,0.5432,0.5491,0.5519,0.5549,0.5595,0.5659,0.5616,0.558,0.5575,0.545,0.5464,0.5223,0.5185,0.5096,0.5011,0.4997,0.5245,0.4981,0.4978,0.5368,0.5558,0.575,0.5814,0.5091,0.5092,0.5092,0.5897,0,0.5356,0.5398,0.5456,0.55,0.5548,0.5598,0.556,0.5544,0.548,0.5398,0.5304,0.5153,0.5039,0.501,0.4911,0.491,0.505,0.488,0.4852,0.4906,0.5273,0.5312,0.481,0.4807,0.4804,0.4802,0,0,0.5266,0.5318,0.5346,0.5428,0.545,0.5411,0.5468,0.5414,0.5346,0.5301,0.5257,0.5047,0.4948,0.4836,0.4814,0.4787,0.4916,0.4808,0.4867,0.4875,0.4881,0.523,0.527,0.4797,0.4796,0.4795,0.4794,0,0.5239,0.5274,0.5322,0.5359,0.5396,0.5361,0.5401,0.5383,0.5328,0.5273,0.5118,0.5038,0.4928,0.48,0.4727,0.4758,0.4835,0.4766,0.4833,0.4845,0.4857,0.4866,0.5213,0.525,0.4788,0.4788,0.4789,0,0.5171,0.5203,0.5199,0.527,0.526,0.5287,0.5232,0.5274,0.5243,0.5095,0.5015,0.4921,0.4772,0.4707,0.4684,0.4666,0.4792,0.4673,0.4684,0.4651,0.4658,0.4671,0.4682,0.4542,0.4542,0.4542,0,0,0.5165,0.5199,0.5207,0.5259,0.5283,0.5239,0.5247,0.5203,0.5136,0.5101,0.5001,0.4876,0.4771,0.4738,0.4635,0.4637,0.4687,0.4652,0.4663,0.4674,0.4648,0.4657,0.4669,0.4543,0.4543,0.4543,0,0,0.5135,0.5138,0.5098,0.5176,0.5183,0.5138,0.5162,0.5131,0.5053,0.5013,0.487,0.4835,0.4776,0.4713,0.4723,0.4651,0.459,0.4587,0.4724,0.4737,0.4748,0.4733,0.4624,0,0,0,0,0,0.507,0.5149,0.5114,0.5121,0.512,0.5166,0.5159,0.5074,0.5026,0.5063,0.4911,0.4866,0.4645,0.4651,0.464,0.4687,0.4544,0.4544,0.4544,0.4715,0.473,0.4742,0,0,0,0,0,0,0.5072,0.5084,0.5111,0.5078,0.5076,0.5161,0.5022,0.5,0.5019,0.5003,0.4888,0.4861,0.4739,0.4654,0.4645,0.4691,0.4627,0.4544,0.4544,0.4544,0.472,0.4732,0.4742,0,0,0,0,0,0.5074,0.5083,0.5112,0.5073,0.5072,0.4986,0.5018,0.4998,0.5009,0.4865,0.4839,0.4952,0.4744,0.4727,0.4648,0.4698,0.4634,0.463,0.4544,0.4544,0.4544,0.4726,0,0,0,0,0,0,0.5075,0.5043,0.5108,0.5103,0.5039,0.4978,0.497,0.4997,0.4867,0.4845,0.4917,0.4905,0.4748,0.4734,0.4721,0.4704,0.4639,0.4635,0.4633,0.4544,0.4544,0.4544,0,0,0,0,0,0,0.5037,0.504,0.5105,0.5066,0.5055,0.4972,0.4965,0.4943,0.4865,0.4923,0.4911,0.4913,0.4756,0.4739,0.4729,0.4699,0.4643,0.464,0.4637,0.4636,0.4544,0.4544,0,0,0,0,0,0,0.5036,0.5037,0.5066,0.5058,0.5048,0.4975,0.4947,0.4937,0.4871,0.4928,0.486,0.4855,0.4764,0.4752,0.4735,0.4711,0.4702,0.4643,0.4641,0.4639,0.4638,0,0,0,0,0,0,0,0.5034,0.5057,0.5149,0.5051,0.5042,0.5056,0.5053,0.5051,0.487,0.4866,0.4861,0.4857,0.4662,0.4659,0.4655,0.472,0,0,0.4643,0.4642,0,0,0,0,0,0,0,0,0.5053,0.5056,0.5149,0.5149,0.5148,0.5055,0.5053,0.5051,0.4869,0.4866,0.4862,0.4859,0.4661,0.4658,0.4655,0,0,0,0,0,0,0,0,0,0,0,0,0,0,0,0.5149,0.5149,0,0.5055,0.5053,0.5052,0.4869,0.4866,0.4863,0.486,0.4661,0.4658,0.4656,0,0,0,0,0,0,0,0,0,0,0,0,0,0,0,0,0,0,0,0,0,0,0,0,0,0,0,0,0,0,0,0,0,0,0,0,0,0,0,0,0,0,0,0,0,0,0,0,0,0,0,0,0,0,0,0,0,0,0,0,0,0,0,0,0,0,0,0,0]}],[{"header":{"parameterUnit":"kt","parameterCategory":2,"dx":1,"dy":1,"la1":30.253999710083008,"la2":30.299108505249023,"lo1":-89.0895004272461,"lo2":-89.04439544677734,"nx":28,"ny":28,"refTime":"2022-10-11T21:00:00:Z","depth":"0","parameterNumber":3,"parameterNumberName":"V-component_of_CURRENTS"},"data":[0.1147,0.1234,0.1263,0.1503,0.1598,0.1833,0.1987,0.2273,0.2609,0.3179,0.3552,0.3819,0.3337,0.0983,-0.0813,-0.1291,-0.1871,-0.1914,-0.2184,-0.1769,-0.1708,-0.165,-0.1795,-0.2245,-0.2247,-0.2983,-0.2992,-0.2998,0.1082,0.1111,0.1197,0.131,0.1457,0.148,0.1724,0.1906,0.2246,0.2657,0.295,0.3126,0.2523,0.1823,0.0616,-0.0247,-0.0596,-0.0747,-0.1009,-0.1082,-0.0213,-0.03,-0.0439,-0.0439,-0.0438,-0.0438,-0.0437,-0.0437,0.0958,0.1001,0.1045,0.1124,0.1222,0.1393,0.153,0.1708,0.1975,0.2344,0.2455,0.2814,0.2506,0.2064,0.1527,0.0515,0.0593,0.012,-0.0076,-0.0137,-0.0351,0.0621,0.072,0.072,0.072,0.072,0.0721,0,0.0853,0.0856,0.0882,0.0974,0.1049,0.1148,0.127,0.1423,0.154,0.1767,0.2078,0.2254,0.2221,0.2068,0.17,0.136,0.0538,0.0844,0.0344,-0.0143,-0.0301,-0.0453,0.0517,0.0643,0.0642,0.0642,0.0642,0.0642,0.0714,0.0753,0.078,0.0819,0.0819,0.0899,0.0975,0.1025,0.1162,0.143,0.1578,0.1771,0.1935,0.1824,0.1457,0.1182,0.0778,0.0853,0.0619,0.0118,-0.0117,-0.0235,-0.0361,0.0639,0.0639,0.064,0.064,0,0.0645,0.0608,0.066,0.0662,0.0675,0.0734,0.0812,0.0927,0.0991,0.1216,0.127,0.1374,0.1459,0.1328,0.1238,0.0955,0.0631,0.0771,0.0748,0.0738,0.0126,-0.0083,-0.0229,-0.0379,0.0668,0.0669,0.067,0,0.0515,0.0544,0.0495,0.052,0.0608,0.0534,0.067,0.0678,0.0784,0.0941,0.088,0.1057,0.0915,0.0968,0.0756,0.0689,0.0754,0.0469,0.0467,0.0436,0.0431,0.004,-0.0177,0.0489,0.0488,0.0487,0.0486,0,0.042,0.0373,0.0413,0.0398,0.0366,0.0412,0.0413,0.0466,0.0551,0.0636,0.0746,0.0743,0.0834,0.0712,0.0617,0.0518,0.0642,0.0511,0.0423,0.0422,0.0435,0.043,0.0074,0.0485,0.0485,0.0485,0.0484,0,0.0274,0.026,0.0277,0.0273,0.027,0.0269,0.0358,0.0363,0.044,0.0461,0.0502,0.0507,0.0545,0.0399,0.0408,0.0372,0.0283,0.0254,0.0258,0.0266,0.0214,0.0307,0.0369,-0.0109,0.0272,0.0271,0.0269,0,0.0216,0.0197,0.0129,0.014,0.0141,0.0088,0.0118,0.0126,0.0146,0.0234,0.0221,0.0291,0.0144,0.0185,0.0162,0.0175,0.0167,0.0098,0.0188,0.0191,0.0204,0.0259,0.0239,0.0339,0.0246,0.0248,0.025,0,0.0164,0.008,0.0074,0.0081,-0.0012,-0.0023,-0.0019,0.0008,0.0096,0.0027,0.0158,0.009,0.0085,0.0098,0.0077,0.009,0.0126,0.0038,0.0039,0.0104,0.0232,0.0226,0.0241,0.0113,0.0115,0.0118,0.0232,0,0.0108,0.0073,0.0052,-0.0007,-0.0042,-0.0061,-0.0098,-0.0101,-0.0096,-0.008,-0.0035,-0.0082,-0.0033,-0.0056,-0.009,-0.0018,-0.0023,-0.0043,-0.0017,-0.0,0.0041,0.0055,-0.0119,-0.012,-0.012,-0.012,0,0,0.0091,0.0067,-0.0016,-0.0053,-0.0055,-0.0105,-0.0107,-0.0119,-0.0145,-0.0101,-0.0148,-0.0105,-0.0136,-0.0055,-0.0081,-0.0114,-0.009,-0.0075,-0.0031,-0.0022,-0.0013,0.003,0.0044,-0.0121,-0.0121,-0.0121,-0.0121,0,0.0081,0.0023,-0.0008,-0.0048,-0.0092,-0.0104,-0.0113,-0.0138,-0.0119,-0.0148,-0.0117,-0.0122,-0.0151,-0.0115,-0.0101,-0.0123,-0.0079,-0.0132,-0.0082,-0.0036,-0.0026,-0.0017,0.0026,0.0039,-0.0122,-0.0122,-0.0122,0,0.0069,0.0028,0.001,-0.0058,-0.0068,-0.009,-0.0074,-0.01,-0.0083,-0.0093,-0.0079,-0.0098,-0.0091,-0.0105,-0.0111,-0.0103,-0.0066,-0.0108,-0.0107,-0.0073,-0.0023,-0.0013,-0.0004,-0.011,-0.011,-0.011,0,0,0.0053,0.0006,-0.0034,-0.0059,-0.0081,-0.0075,-0.0081,-0.0078,-0.0088,-0.0088,-0.0085,-0.008,-0.0078,-0.0081,-0.0101,-0.0124,-0.009,-0.0104,-0.0105,-0.0105,-0.0071,-0.0022,-0.0013,-0.0109,-0.0109,-0.0109,0,0,0.0066,0.0008,0.0008,-0.0035,-0.0062,-0.0064,-0.0072,-0.0053,-0.0066,-0.0054,-0.0036,-0.004,-0.006,-0.0068,-0.0059,-0.0061,-0.0062,-0.0066,-0.0042,-0.0043,-0.0043,0.0007,-0.0016,0,0,0,0,0,0.0041,0.0007,0.0006,-0.0001,-0.0034,-0.0073,-0.0075,-0.0051,-0.0005,-0.0029,-0.0025,0.0002,-0.0057,-0.0049,-0.0056,-0.0027,-0.0097,-0.0099,-0.0101,-0.0077,-0.0078,-0.0079,0,0,0,0,0,0,0.0038,0.0026,0.0008,0.0001,-0.0005,-0.0071,-0.0015,-0.001,-0.0003,0.0003,0.0001,0.0002,0.0004,-0.0044,-0.0051,-0.0023,-0.0014,-0.0098,-0.0099,-0.0101,-0.0077,-0.0078,-0.0079,0,0,0,0,0,0.0036,0.0027,-0.0037,0.0003,-0.0003,0.0017,-0.0013,-0.0009,-0.0001,-0.0003,-0.0001,0.0019,0.0003,-0.0001,-0.0048,-0.0019,-0.001,-0.0012,-0.0099,-0.01,-0.0101,-0.0078,0,0,0,0,0,0,0.0034,0.0034,-0.0036,-0.0036,0.0021,0.0021,0.0019,-0.0008,-0.0006,-0.0004,0.0014,0.0018,0.0001,-0.0002,-0.0005,-0.0017,-0.0006,-0.0008,-0.001,-0.01,-0.0101,-0.0102,0,0,0,0,0,0,0.004,0.0034,-0.0036,-0.0014,-0.0011,0.0025,0.0023,-0.0009,-0.0007,0.001,0.0014,0.0015,0.0003,-0.0002,-0.0005,-0.0054,-0.0003,-0.0005,-0.0007,-0.0008,-0.0101,-0.0102,0,0,0,0,0,0,0.0038,0.0033,-0.0014,-0.0012,-0.0009,-0.0003,-0.0003,-0.004,0.002,0.0009,0.0025,0.0028,0.0001,-0.0,-0.0004,-0.0054,-0.0054,-0.0003,-0.0005,-0.0006,-0.0007,0,0,0,0,0,0,0,0.0037,0.0058,-0.0038,-0.001,-0.0007,-0.0032,-0.0032,-0.0032,0.0021,0.0023,0.0025,0.0027,0.001,0.0007,0.0005,-0.0053,0,0,-0.0003,-0.0004,0,0,0,0,0,0,0,0,0.0062,0.0059,-0.0038,-0.0038,-0.0037,-0.0032,-0.0032,-0.0032,0.0021,0.0023,0.0024,0.0026,0.0009,0.0007,0.0005,0,0,0,0,0,0,0,0,0,0,0,0,0,0,0,-0.0038,-0.0038,0,-0.0032,-0.0032,-0.0032,0.0021,0.0023,0.0024,0.0025,0.0009,0.0007,0.0005,0,0,0,0,0,0,0,0,0,0,0,0,0,0,0,0,0,0,0,0,0,0,0,0,0,0,0,0,0,0,0,0,0,0,0,0,0,0,0,0,0,0,0,0,0,0,0,0,0,0,0,0,0,0,0,0,0,0,0,0,0,0,0,0,0,0,0,0,0]}]],[[{"header":{"parameterUnit":"kt","parameterCategory":2,"dx":1,"dy":1,"la1":30.253999710083008,"la2":30.299108505249023,"lo1":-89.0895004272461,"lo2":-89.04439544677734,"nx":28,"ny":28,"refTime":"2022-10-11T21:00:00:Z","depth":"2","parameterNumber":2,"parameterNumberName":"U-component_of_CURRENTS"},"data":[0.0822,0.087,0.0914,0.1042,0.1133,0.1263,0.1383,0.1592,0.1855,0.2094,0.2293,0.2635,0.2966,0.27,0.2752,0.2719,0.2738,0.2623,0.3474,0.3077,0.3094,0.3185,0.2852,0,0,0,0,0,0.0839,0.088,0.0954,0.106,0.1156,0.1237,0.1465,0.1586,0.1891,0.2259,0.2596,0.2614,0.2866,0.312,0.3155,0.3281,0.3068,0.3198,0.2845,0.2873,0.2896,0.2655,0.2636,0.2633,0.263,0.2627,0,0,0.0864,0.0889,0.0948,0.1045,0.1143,0.1286,0.139,0.1628,0.1886,0.2257,0.2564,0.2917,0.313,0.3519,0.3635,0.3687,0.3855,0.3689,0.3682,0.3681,0.3498,0.3323,0.3692,0.3696,0.37,0.3703,0.3706,0,0.0879,0.0896,0.0954,0.1048,0.1133,0.1253,0.1422,0.1544,0.1821,0.2061,0.249,0.2771,0.3295,0.3509,0.3879,0.397,0.3838,0.3878,0.4213,0.3146,0.2951,0.2919,0.2882,0.3287,0.3289,0.3291,0.3292,0.3293,0.0862,0.0902,0.1002,0.1049,0.1099,0.1218,0.1305,0.1473,0.1622,0.2026,0.2175,0.2613,0.2917,0.3579,0.3726,0.4069,0.4022,0.3914,0.3572,0.3627,0.361,0.3548,0.3491,0.3316,0.3313,0.3311,0.3309,0,0.0846,0.0894,0.0977,0.1085,0.1124,0.1198,0.1359,0.1467,0.1629,0.1874,0.1962,0.2226,0.2683,0.2918,0.3382,0.3422,0.3757,0.3825,0.3345,0.3332,0.3491,0.3438,0.4072,0.4078,0.4083,0.4088,0.4091,0,0.0841,0.0896,0.0981,0.1013,0.1117,0.1177,0.131,0.1392,0.1554,0.1728,0.1803,0.1999,0.2251,0.2585,0.2734,0.314,0.3247,0.3163,0.3212,0.2839,0.2803,0.2853,0.2803,0.3246,0.3242,0.3239,0.3236,0,0.0812,0.0897,0.0966,0.0978,0.1078,0.1133,0.1198,0.1303,0.1397,0.1574,0.1684,0.1895,0.2055,0.2321,0.254,0.2407,0.3055,0.2889,0.3027,0.3025,0.283,0.2796,0.3232,0.3231,0.323,0.3229,0.3227,0,0.0799,0.0861,0.0921,0.1029,0.1048,0.1075,0.1198,0.1249,0.1374,0.1425,0.1525,0.1555,0.1779,0.1683,0.213,0.1976,0.2121,0.2234,0.2255,0.2306,0.2188,0.2276,0.252,0.2398,0.239,0.2383,0.2377,0,0.0779,0.085,0.0882,0.0935,0.0975,0.099,0.1046,0.1093,0.1143,0.1242,0.1276,0.1348,0.1263,0.1305,0.1478,0.1648,0.1838,0.1552,0.2038,0.2052,0.2103,0.2382,0.2022,0.241,0.2285,0.2295,0.2302,0,0.0763,0.0839,0.0839,0.0879,0.0892,0.0909,0.0952,0.1013,0.1077,0.1073,0.1181,0.1163,0.1182,0.1188,0.1155,0.1339,0.1675,0.1361,0.1372,0.1584,0.2222,0.2246,0.231,0.1745,0.1756,0.1765,0.2229,0,0.0775,0.0808,0.0823,0.0873,0.0874,0.0878,0.0889,0.0908,0.0908,0.0926,0.0975,0.0954,0.0993,0.0958,0.0928,0.1131,0.1152,0.1128,0.1165,0.128,0.1449,0.1507,0.0803,0.0801,0.08,0.0799,0,0,0.0749,0.0804,0.0826,0.0848,0.0845,0.0817,0.0832,0.0845,0.082,0.0853,0.0814,0.083,0.0794,0.0864,0.0878,0.0825,0.0972,0.0873,0.1154,0.1193,0.1229,0.1401,0.1458,0.0796,0.0796,0.0795,0.0795,0,0.0774,0.0791,0.0833,0.0824,0.0813,0.082,0.0804,0.0794,0.081,0.08,0.0779,0.0779,0.0746,0.0781,0.0783,0.0801,0.0913,0.0769,0.0891,0.1133,0.1173,0.121,0.1386,0.1438,0.0792,0.0792,0.0792,0,0.0769,0.0796,0.0807,0.0821,0.0813,0.082,0.0793,0.0781,0.0795,0.075,0.0764,0.0734,0.0718,0.0736,0.073,0.0728,0.0906,0.0737,0.0742,0.0802,0.1054,0.1097,0.1134,0.0671,0.0671,0.0671,0,0,0.0791,0.0834,0.0817,0.0819,0.0817,0.0794,0.0782,0.0777,0.0762,0.076,0.0745,0.073,0.0722,0.0721,0.0707,0.0709,0.0831,0.0727,0.0732,0.0737,0.0798,0.105,0.1088,0.0671,0.0671,0.0671,0,0,0.0788,0.0817,0.0804,0.0822,0.0799,0.0794,0.0793,0.077,0.0764,0.0763,0.0745,0.0741,0.0725,0.0708,0.0712,0.0733,0.0703,0.0701,0.0774,0.078,0.0785,0.087,0.0728,0,0,0,0,0,0.0794,0.0814,0.0801,0.0799,0.0805,0.0794,0.0794,0.079,0.0772,0.078,0.0761,0.0759,0.0725,0.0728,0.0722,0.0757,0.0674,0.0674,0.0673,0.0763,0.077,0.0776,0,0,0,0,0,0,0.0793,0.0794,0.0799,0.0796,0.0794,0.0796,0.0801,0.0802,0.0773,0.0775,0.0764,0.076,0.077,0.0731,0.0725,0.076,0.073,0.0674,0.0674,0.0673,0.0766,0.0772,0.0777,0,0,0,0,0,0.0792,0.0792,0.0809,0.0796,0.0795,0.078,0.0802,0.0803,0.0793,0.0778,0.0776,0.0782,0.077,0.0764,0.0727,0.0764,0.0734,0.0732,0.0674,0.0673,0.0673,0.0769,0,0,0,0,0,0,0.079,0.0814,0.0808,0.0806,0.079,0.078,0.0784,0.0804,0.08,0.0795,0.0798,0.0799,0.0771,0.0765,0.076,0.0768,0.0737,0.0735,0.0733,0.0674,0.0673,0.0673,0,0,0,0,0,0,0.0812,0.0814,0.0808,0.0802,0.08,0.0781,0.0784,0.0761,0.0799,0.0823,0.0822,0.0798,0.0751,0.0767,0.0763,0.073,0.0739,0.0737,0.0736,0.0735,0.0673,0.0673,0,0,0,0,0,0,0.0812,0.0814,0.0804,0.0803,0.0801,0.0788,0.0759,0.076,0.0814,0.0824,0.0814,0.0813,0.075,0.0748,0.0764,0.0734,0.0731,0.0739,0.0738,0.0737,0.0736,0,0,0,0,0,0,0,0.0812,0.0811,0.0803,0.0803,0.0802,0.078,0.0782,0.0783,0.0814,0.0814,0.0814,0.0814,0.0751,0.0749,0.0747,0.0737,0,0,0.074,0.0739,0,0,0,0,0,0,0,0,0.0809,0.081,0.0803,0.0801,0.08,0.078,0.0781,0.0783,0.0814,0.0814,0.0814,0.0814,0.0751,0.0749,0.0747,0,0,0,0,0,0,0,0,0,0,0,0,0,0,0,0.0803,0.0801,0,0.0781,0.0781,0.0782,0.0814,0.0814,0.0814,0.0814,0.075,0.0749,0.0747,0,0,0,0,0,0,0,0,0,0,0,0,0,0,0,0,0,0,0,0,0,0,0,0,0,0,0,0,0,0,0,0,0,0,0,0,0,0,0,0,0,0,0,0,0,0,0,0,0,0,0,0,0,0,0,0,0,0,0,0,0,0,0,0,0,0,0,0,0]}],[{"header":{"parameterUnit":"kt","parameterCategory":2,"dx":1,"dy":1,"la1":30.253999710083008,"la2":30.299108505249023,"lo1":-89.0895004272461,"lo2":-89.04439544677734,"nx":28,"ny":28,"refTime":"2022-10-11T21:00:00:Z","depth":"2","parameterNumber":3,"parameterNumberName":"V-component_of_CURRENTS"},"data":[-0.0031,0.0076,0.0133,0.0388,0.0528,0.0774,0.0931,0.1159,0.1313,0.1434,0.1446,0.1219,0.0609,0.018,-0.0435,-0.0768,-0.0804,-0.0807,-0.086,-0.0685,-0.0672,-0.1112,-0.0932,0,0,0,0,0,-0.0068,0.0003,0.0102,0.0252,0.0393,0.0436,0.0637,0.079,0.1056,0.1151,0.1233,0.0859,0.04,-0.0052,-0.0685,-0.1122,-0.111,-0.1211,-0.1124,-0.112,-0.1116,-0.1002,-0.1159,-0.1159,-0.1159,-0.1159,0,0,-0.0125,-0.007,0.0008,0.0112,0.0211,0.0352,0.0477,0.0614,0.0762,0.0927,0.0842,0.0835,0.036,-0.022,-0.0597,-0.1004,-0.1049,-0.1198,-0.1192,-0.1187,-0.1082,-0.1097,-0.1257,-0.1257,-0.1257,-0.1258,-0.1258,0,-0.0162,-0.0142,-0.0083,0.002,0.009,0.0181,0.0279,0.0353,0.0426,0.0489,0.0601,0.0563,0.0192,-0.0111,-0.0601,-0.0789,-0.0969,-0.1068,-0.1025,-0.0926,-0.0945,-0.0972,-0.0958,-0.1085,-0.1084,-0.1084,-0.1084,-0.1083,-0.02,-0.0178,-0.01,-0.0047,-0.0019,0.0048,0.0101,0.0119,0.019,0.0231,0.0283,0.0143,0.0112,-0.0231,-0.0509,-0.0819,-0.0818,-0.104,-0.1014,-0.0993,-0.1025,-0.1009,-0.0994,-0.1077,-0.1078,-0.1079,-0.1079,0,-0.0218,-0.02,-0.0142,-0.0093,-0.0072,-0.0026,0.004,0.0077,0.0063,0.0131,0.0124,0.0017,-0.0087,-0.0265,-0.0446,-0.0595,-0.0752,-0.0849,-0.0825,-0.0862,-0.0989,-0.0977,-0.1139,-0.1141,-0.1143,-0.1145,-0.1146,0,-0.024,-0.0204,-0.0168,-0.0146,-0.0083,-0.0082,-0.0032,-0.003,-0.0029,0.0031,-0.0087,-0.0065,-0.0207,-0.0288,-0.0404,-0.0574,-0.055,-0.0737,-0.0785,-0.0734,-0.0735,-0.0687,-0.0683,-0.0698,-0.0695,-0.0693,-0.0691,0,-0.0279,-0.0228,-0.0188,-0.0177,-0.0148,-0.0124,-0.0107,-0.0114,-0.0092,-0.0139,-0.0138,-0.0191,-0.0215,-0.0305,-0.0393,-0.0385,-0.0523,-0.0548,-0.0723,-0.0732,-0.0759,-0.0767,-0.0689,-0.0688,-0.0687,-0.0687,-0.0686,0,-0.031,-0.0287,-0.0231,-0.0207,-0.0197,-0.0172,-0.0161,-0.0143,-0.0171,-0.0185,-0.0205,-0.0243,-0.0255,-0.0272,-0.0365,-0.0294,-0.0412,-0.0471,-0.0483,-0.0531,-0.0577,-0.0786,-0.0797,-0.0683,-0.0681,-0.068,-0.0678,0,-0.0359,-0.0311,-0.0328,-0.0276,-0.0255,-0.0274,-0.0255,-0.0251,-0.0267,-0.0268,-0.0305,-0.0304,-0.0306,-0.0298,-0.0304,-0.0335,-0.041,-0.0318,-0.0534,-0.0543,-0.0567,-0.0555,-0.0514,-0.0769,-0.0657,-0.0659,-0.0661,0,-0.0418,-0.0414,-0.041,-0.0398,-0.0399,-0.038,-0.0355,-0.035,-0.0339,-0.0332,-0.0332,-0.0315,-0.0328,-0.0338,-0.0343,-0.0349,-0.0391,-0.0363,-0.0367,-0.0503,-0.0515,-0.053,-0.0548,-0.0345,-0.0346,-0.0346,-0.0644,0,-0.0481,-0.0477,-0.0457,-0.0462,-0.045,-0.0418,-0.0435,-0.0407,-0.0414,-0.0426,-0.0403,-0.0415,-0.0417,-0.0402,-0.0414,-0.0386,-0.0446,-0.0426,-0.0473,-0.0424,-0.0568,-0.0581,-0.0454,-0.0455,-0.0457,-0.0458,0,0,-0.0546,-0.0548,-0.058,-0.0559,-0.0554,-0.0576,-0.0541,-0.0538,-0.0514,-0.0509,-0.052,-0.0505,-0.0509,-0.0497,-0.0469,-0.0467,-0.052,-0.0469,-0.044,-0.0437,-0.0435,-0.0569,-0.0579,-0.046,-0.0461,-0.0461,-0.0462,0,-0.0587,-0.0617,-0.0599,-0.0596,-0.0593,-0.0605,-0.0589,-0.0579,-0.0575,-0.0543,-0.0566,-0.0551,-0.0533,-0.0546,-0.0555,-0.0487,-0.0557,-0.0469,-0.0427,-0.045,-0.0446,-0.0443,-0.0572,-0.0581,-0.0465,-0.0465,-0.0465,0,-0.0647,-0.0672,-0.0671,-0.0684,-0.0682,-0.0663,-0.0695,-0.0662,-0.0646,-0.0681,-0.0638,-0.0639,-0.0661,-0.0626,-0.0609,-0.0631,-0.0609,-0.0578,-0.0571,-0.058,-0.0609,-0.0603,-0.0597,-0.0669,-0.0669,-0.067,0,0,-0.0675,-0.0681,-0.0706,-0.0695,-0.0693,-0.0701,-0.069,-0.0693,-0.0689,-0.0681,-0.068,-0.0681,-0.068,-0.067,-0.0666,-0.0624,-0.0687,-0.06,-0.0591,-0.0583,-0.0588,-0.0613,-0.0607,-0.0671,-0.0672,-0.0672,0,0,-0.0683,-0.0723,-0.0745,-0.0741,-0.0736,-0.0746,-0.0722,-0.0729,-0.0711,-0.0707,-0.0737,-0.0738,-0.0699,-0.0712,-0.0733,-0.0676,-0.0719,-0.0714,-0.0662,-0.065,-0.0641,-0.065,-0.078,0,0,0,0,0,-0.0737,-0.0722,-0.0742,-0.0745,-0.0761,-0.0741,-0.0739,-0.0751,-0.0761,-0.0735,-0.0741,-0.0765,-0.0734,-0.0753,-0.075,-0.0713,-0.0694,-0.069,-0.0686,-0.0609,-0.0596,-0.0586,0,0,0,0,0,0,-0.0739,-0.0744,-0.0741,-0.0757,-0.076,-0.0743,-0.0783,-0.0785,-0.0764,-0.0766,-0.0764,-0.0766,-0.079,-0.0756,-0.0753,-0.0718,-0.0781,-0.0693,-0.0689,-0.0686,-0.0605,-0.0594,-0.0586,0,0,0,0,0,-0.074,-0.0745,-0.0773,-0.0756,-0.0758,-0.0772,-0.0784,-0.0786,-0.0761,-0.0788,-0.0789,-0.0769,-0.0789,-0.0787,-0.0755,-0.0719,-0.0783,-0.0782,-0.069,-0.0688,-0.0685,-0.06,0,0,0,0,0,0,-0.0741,-0.0735,-0.0773,-0.0773,-0.0768,-0.0771,-0.0775,-0.0787,-0.0783,-0.0785,-0.0797,-0.08,-0.0788,-0.0786,-0.0785,-0.0717,-0.0785,-0.0784,-0.0783,-0.0688,-0.0686,-0.0684,0,0,0,0,0,0,-0.0733,-0.0735,-0.0773,-0.0787,-0.0789,-0.0771,-0.0774,-0.0757,-0.0783,-0.0792,-0.0794,-0.0798,-0.0793,-0.0786,-0.0785,-0.0756,-0.0787,-0.0786,-0.0785,-0.0784,-0.0687,-0.0685,0,0,0,0,0,0,-0.0733,-0.0735,-0.0787,-0.0789,-0.079,-0.079,-0.0755,-0.077,-0.0796,-0.0791,-0.08,-0.0801,-0.0793,-0.0792,-0.0785,-0.0757,-0.0756,-0.0787,-0.0786,-0.0785,-0.0785,0,0,0,0,0,0,0,-0.0734,-0.0724,-0.0776,-0.0789,-0.0791,-0.0776,-0.0775,-0.0775,-0.0797,-0.0798,-0.0799,-0.08,-0.0794,-0.0793,-0.0791,-0.0757,0,0,-0.0787,-0.0786,0,0,0,0,0,0,0,0,-0.0723,-0.0724,-0.0776,-0.0776,-0.0776,-0.0776,-0.0775,-0.0775,-0.0797,-0.0798,-0.0799,-0.08,-0.0794,-0.0793,-0.0792,0,0,0,0,0,0,0,0,0,0,0,0,0,0,0,-0.0776,-0.0776,0,-0.0776,-0.0775,-0.0775,-0.0797,-0.0798,-0.0799,-0.08,-0.0794,-0.0793,-0.0792,0,0,0,0,0,0,0,0,0,0,0,0,0,0,0,0,0,0,0,0,0,0,0,0,0,0,0,0,0,0,0,0,0,0,0,0,0,0,0,0,0,0,0,0,0,0,0,0,0,0,0,0,0,0,0,0,0,0,0,0,0,0,0,0,0,0,0,0,0]}]],[[{"header":{"parameterUnit":"kt","parameterCategory":2,"dx":1,"dy":1,"la1":30.253999710083008,"la2":30.299108505249023,"lo1":-89.0895004272461,"lo2":-89.04439544677734,"nx":28,"ny":28,"refTime":"2022-10-11T21:00:00:Z","depth":"4","parameterNumber":2,"parameterNumberName":"U-component_of_CURRENTS"},"data":[0.0516,0.056,0.06,0.0652,0.0696,0.077,0.084,0.0957,0.1013,0.1204,0.1272,0.1427,0.1551,0.1631,0.17,0.1726,0.1605,0.1951,0.1947,0.1788,0.1787,0.1786,0.1681,0,0,0,0,0,0.0547,0.0572,0.0625,0.07,0.0771,0.0826,0.0943,0.101,0.1192,0.1278,0.1374,0.1513,0.1641,0.172,0.1726,0.1841,0.1823,0.1837,0.1692,0.1788,0.1786,0.1685,0,0,0,0,0,0,0.0593,0.0608,0.0681,0.0754,0.0827,0.0884,0.094,0.1061,0.1153,0.1407,0.1466,0.1653,0.1802,0.1845,0.1885,0.1906,0.1836,0.1727,0.1729,0.1728,0.164,0.1613,0.1704,0,0,0,0,0,0.0637,0.0678,0.0728,0.0811,0.0877,0.0942,0.1049,0.1095,0.1272,0.1393,0.1554,0.1641,0.1798,0.1837,0.1919,0.1896,0.1845,0.1877,0.1873,0.1707,0.1695,0.1688,0.1677,0.1781,0.1781,0.1781,0.1781,0,0.0683,0.0713,0.0823,0.0862,0.0917,0.1,0.1055,0.1181,0.125,0.1471,0.1519,0.1705,0.1781,0.185,0.1883,0.1901,0.187,0.1876,0.1699,0.1692,0.1687,0.1676,0.1665,0.1779,0.1779,0.178,0.178,0,0.0701,0.0774,0.0838,0.0946,0.0982,0.1026,0.1149,0.1198,0.1312,0.142,0.1466,0.1596,0.171,0.1749,0.1812,0.1749,0.1762,0.1779,0.1772,0.1773,0.1669,0.1658,0.1778,0.1778,0.1778,0.1779,0.1779,0,0.0753,0.0799,0.0907,0.0935,0.0996,0.1072,0.1142,0.1203,0.1294,0.1369,0.1426,0.1495,0.1531,0.1607,0.1591,0.1639,0.1674,0.1589,0.1597,0.1535,0.1526,0.1522,0.1511,0.1611,0.161,0.1609,0.1608,0,0.0766,0.0862,0.0916,0.0942,0.1038,0.1078,0.1128,0.1195,0.1243,0.133,0.1389,0.1418,0.1483,0.149,0.1536,0.1487,0.1616,0.1545,0.156,0.156,0.1511,0.1501,0.1607,0.1606,0.1606,0.1606,0.1605,0,0.081,0.0866,0.0925,0.1018,0.1037,0.1067,0.1141,0.1177,0.1238,0.1276,0.1314,0.1335,0.1371,0.1345,0.1406,0.1375,0.141,0.1419,0.1424,0.1387,0.1363,0.1403,0.1488,0.1487,0.1485,0.1484,0.1482,0,0.081,0.088,0.093,0.0984,0.102,0.1063,0.1097,0.1131,0.117,0.1217,0.1222,0.1263,0.1235,0.1267,0.1277,0.1295,0.1338,0.1273,0.1362,0.1365,0.1342,0.1414,0.1309,0.1461,0.1463,0.1465,0.1467,0,0.0804,0.091,0.0919,0.0958,0.1012,0.1025,0.1066,0.1098,0.1134,0.1157,0.1199,0.1202,0.1217,0.1215,0.1207,0.1226,0.1308,0.1229,0.1229,0.1293,0.1415,0.1392,0.1403,0.1301,0.1302,0.1304,0.1452,0,0.084,0.0891,0.0912,0.0972,0.099,0.1013,0.1035,0.1065,0.1093,0.1104,0.1139,0.1142,0.1161,0.1154,0.1149,0.1183,0.1202,0.1173,0.1155,0.1195,0.1255,0.1268,0.111,0.1109,0.1108,0.1108,0,0,0.082,0.0873,0.0912,0.0945,0.0963,0.098,0.1,0.1016,0.1039,0.1058,0.107,0.1095,0.1088,0.11,0.1119,0.111,0.1145,0.1108,0.1169,0.1176,0.1182,0.1242,0.1254,0.1106,0.1106,0.1106,0.1105,0,0.0827,0.0873,0.091,0.0927,0.0961,0.0968,0.0977,0.0997,0.1019,0.1045,0.1049,0.1066,0.1073,0.1073,0.107,0.1099,0.1105,0.1099,0.1131,0.1161,0.1169,0.1176,0.1236,0.1248,0.1103,0.1103,0.1103,0,0.082,0.0856,0.0876,0.0913,0.0931,0.0946,0.0948,0.0971,0.0986,0.0982,0.1022,0.1026,0.1017,0.1036,0.1043,0.1032,0.1079,0.1041,0.1045,0.1044,0.1074,0.1083,0.1091,0.0988,0.0988,0.0988,0,0,0.0826,0.0871,0.0885,0.0911,0.0924,0.0936,0.0946,0.0959,0.0974,0.0989,0.0998,0.1008,0.1011,0.1018,0.1017,0.1025,0.1037,0.1029,0.1034,0.1039,0.104,0.1071,0.1079,0.0987,0.0987,0.0987,0,0,0.0816,0.0861,0.0876,0.091,0.0918,0.0922,0.0944,0.0949,0.0976,0.0994,0.0988,0.099,0.1012,0.0999,0.0991,0.1009,0.0984,0.0986,0.1023,0.1029,0.1034,0.1039,0.0969,0,0,0,0,0,0.083,0.0853,0.0867,0.0874,0.0909,0.0913,0.0917,0.0941,0.0957,0.0971,0.0993,0.0976,0.1002,0.0994,0.0991,0.1002,0.0976,0.0978,0.098,0.1029,0.1036,0.1042,0,0,0,0,0,0,0.0832,0.0841,0.0865,0.0872,0.0879,0.0913,0.0926,0.0933,0.0957,0.0962,0.0974,0.0975,0.0971,0.0994,0.0991,0.1002,0.097,0.0977,0.0979,0.098,0.1031,0.1037,0.1042,0,0,0,0,0,0.0834,0.0841,0.09,0.0871,0.0878,0.0906,0.0928,0.0933,0.0961,0.0953,0.0957,0.0982,0.097,0.0969,0.0992,0.1004,0.0972,0.0971,0.0978,0.0979,0.098,0.1034,0,0,0,0,0,0,0.0836,0.0844,0.0901,0.0902,0.0881,0.0906,0.0914,0.0934,0.0951,0.0955,0.0958,0.0961,0.0969,0.0969,0.0968,0.1007,0.0973,0.0972,0.0972,0.0979,0.098,0.0981,0,0,0,0,0,0,0.0839,0.0845,0.0902,0.0914,0.0917,0.0905,0.0912,0.0898,0.095,0.0955,0.0958,0.0959,0.0964,0.0968,0.0968,0.0944,0.0974,0.0973,0.0973,0.0972,0.098,0.0981,0,0,0,0,0,0,0.0842,0.0847,0.0914,0.0916,0.0919,0.0941,0.0892,0.0925,0.097,0.0953,0.0974,0.0975,0.0962,0.0963,0.0967,0.0944,0.0944,0.0974,0.0974,0.0973,0.0973,0,0,0,0,0,0,0,0.0843,0.0813,0.0889,0.0918,0.0921,0.0917,0.0918,0.0918,0.0971,0.0972,0.0973,0.0975,0.098,0.0979,0.0977,0.0944,0,0,0.0974,0.0974,0,0,0,0,0,0,0,0,0.081,0.0812,0.0889,0.089,0.089,0.0917,0.0918,0.0918,0.0971,0.0972,0.0973,0.0974,0.0979,0.0978,0.0978,0,0,0,0,0,0,0,0,0,0,0,0,0,0,0,0.0889,0.089,0,0.0917,0.0918,0.0918,0.0971,0.0972,0.0973,0.0974,0.0979,0.0978,0.0978,0,0,0,0,0,0,0,0,0,0,0,0,0,0,0,0,0,0,0,0,0,0,0,0,0,0,0,0,0,0,0,0,0,0,0,0,0,0,0,0,0,0,0,0,0,0,0,0,0,0,0,0,0,0,0,0,0,0,0,0,0,0,0,0,0,0,0,0,0]}],[{"header":{"parameterUnit":"kt","parameterCategory":2,"dx":1,"dy":1,"la1":30.253999710083008,"la2":30.299108505249023,"lo1":-89.0895004272461,"lo2":-89.04439544677734,"nx":28,"ny":28,"refTime":"2022-10-11T21:00:00:Z","depth":"4","parameterNumber":3,"parameterNumberName":"V-component_of_CURRENTS"},"data":[-0.0119,-0.0067,-0.003,0.0074,0.0129,0.0195,0.0239,0.0253,0.0283,0.0279,0.0164,0.0096,-0.0135,-0.0008,-0.036,-0.0415,-0.0526,-0.0777,-0.0779,-0.096,-0.0963,-0.0967,-0.0917,0,0,0,0,0,-0.0135,-0.0094,-0.0039,0.0027,0.0084,0.0111,0.0176,0.0189,0.0206,0.0249,0.0225,0.0125,-0.0099,-0.021,-0.0361,-0.0472,-0.0728,-0.0657,-0.0805,-0.0962,-0.0966,-0.0917,0,0,0,0,0,0,-0.0154,-0.0124,-0.0095,-0.0045,0.0006,0.0078,0.0093,0.0145,0.0168,0.0176,0.0185,0.0042,-0.0065,-0.03,-0.0473,-0.0642,-0.0673,-0.0727,-0.0743,-0.075,-0.0675,-0.0583,-0.0542,0,0,0,0,0,-0.0175,-0.0175,-0.0151,-0.0101,-0.0071,-0.0021,0.0018,0.0056,0.0061,0.0037,0.0062,-0.0054,-0.0169,-0.0383,-0.0571,-0.0735,-0.0949,-0.0969,-0.0972,-0.0972,-0.0928,-0.0935,-0.093,-0.0982,-0.0982,-0.0982,-0.0983,0,-0.0197,-0.0197,-0.0176,-0.0149,-0.015,-0.0128,-0.0106,-0.012,-0.009,-0.0089,-0.0065,-0.0166,-0.0245,-0.0449,-0.0657,-0.0886,-0.0909,-0.0979,-0.0978,-0.0934,-0.0941,-0.0935,-0.093,-0.0986,-0.0986,-0.0985,-0.0985,0,-0.0205,-0.0217,-0.0204,-0.0206,-0.0202,-0.0189,-0.0171,-0.0159,-0.0189,-0.0171,-0.0186,-0.0284,-0.0395,-0.0576,-0.0751,-0.0839,-0.0961,-0.0983,-0.0963,-0.0974,-0.094,-0.0933,-0.0991,-0.099,-0.0989,-0.0988,-0.0988,0,-0.0222,-0.0222,-0.0227,-0.0227,-0.021,-0.0237,-0.023,-0.0255,-0.0284,-0.0267,-0.0378,-0.0383,-0.0574,-0.0668,-0.0783,-0.0883,-0.0922,-0.0938,-0.0951,-0.096,-0.0953,-0.0972,-0.0966,-0.1019,-0.1019,-0.1018,-0.1018,0,-0.0222,-0.0237,-0.024,-0.0248,-0.0262,-0.0271,-0.0282,-0.0328,-0.0328,-0.0402,-0.0404,-0.053,-0.0565,-0.0683,-0.0789,-0.0791,-0.092,-0.0932,-0.0938,-0.0934,-0.0968,-0.0962,-0.1018,-0.1018,-0.1017,-0.1017,-0.1017,0,-0.024,-0.0237,-0.0253,-0.025,-0.0255,-0.0279,-0.0303,-0.0332,-0.0395,-0.0425,-0.0497,-0.0549,-0.063,-0.0654,-0.0785,-0.0761,-0.0816,-0.0862,-0.0865,-0.0827,-0.0826,-0.0854,-0.0894,-0.0893,-0.0892,-0.0891,-0.089,0,-0.0218,-0.023,-0.0248,-0.0272,-0.0277,-0.0307,-0.0336,-0.0374,-0.0416,-0.046,-0.0528,-0.0582,-0.0626,-0.0647,-0.0703,-0.0766,-0.0805,-0.0765,-0.086,-0.0862,-0.0809,-0.0838,-0.0823,-0.0876,-0.0878,-0.0879,-0.088,0,-0.0201,-0.0222,-0.0229,-0.0227,-0.0271,-0.0283,-0.0331,-0.0369,-0.0385,-0.0465,-0.0502,-0.0596,-0.0621,-0.0656,-0.0692,-0.0733,-0.0782,-0.075,-0.0753,-0.0761,-0.0876,-0.0826,-0.0829,-0.0815,-0.0816,-0.0818,-0.087,0,-0.0188,-0.0202,-0.0215,-0.0234,-0.0258,-0.0283,-0.0316,-0.0348,-0.0386,-0.0419,-0.0495,-0.056,-0.0626,-0.0649,-0.0674,-0.0728,-0.0731,-0.0747,-0.0741,-0.0763,-0.0782,-0.0789,-0.07,-0.07,-0.07,-0.07,0,0,-0.016,-0.0175,-0.0184,-0.02,-0.022,-0.0251,-0.0272,-0.0306,-0.0376,-0.0398,-0.0419,-0.0544,-0.0591,-0.0655,-0.0664,-0.0692,-0.0715,-0.0686,-0.0748,-0.0753,-0.0758,-0.0777,-0.0784,-0.07,-0.07,-0.07,-0.07,0,-0.0149,-0.016,-0.0169,-0.0189,-0.0222,-0.0243,-0.0256,-0.0302,-0.0328,-0.0395,-0.0433,-0.049,-0.0583,-0.0617,-0.0647,-0.0689,-0.0712,-0.0705,-0.0698,-0.0747,-0.0752,-0.0757,-0.0776,-0.0783,-0.07,-0.07,-0.07,0,-0.0127,-0.0136,-0.0145,-0.0173,-0.02,-0.0227,-0.0241,-0.0278,-0.0307,-0.0355,-0.0427,-0.0475,-0.0532,-0.0592,-0.0625,-0.0619,-0.0704,-0.0681,-0.0682,-0.0678,-0.073,-0.0736,-0.0741,-0.0676,-0.0676,-0.0676,0,0,-0.0113,-0.012,-0.0148,-0.0172,-0.0185,-0.0225,-0.025,-0.027,-0.032,-0.0345,-0.0402,-0.0459,-0.0514,-0.0549,-0.0601,-0.0657,-0.0676,-0.0677,-0.0678,-0.0679,-0.0676,-0.0728,-0.0733,-0.0675,-0.0675,-0.0675,0,0,-0.0114,-0.0131,-0.0138,-0.0162,-0.0193,-0.0235,-0.0262,-0.0284,-0.0341,-0.0351,-0.0405,-0.0424,-0.0496,-0.0523,-0.0507,-0.0594,-0.059,-0.0595,-0.0574,-0.0577,-0.0578,-0.056,-0.0519,0,0,0,0,0,-0.0109,-0.0123,-0.0129,-0.0138,-0.0188,-0.0226,-0.0236,-0.0274,-0.0289,-0.0306,-0.0364,-0.0381,-0.0519,-0.0506,-0.0523,-0.0543,-0.0664,-0.0666,-0.0668,-0.0656,-0.0657,-0.0659,0,0,0,0,0,0,-0.0112,-0.012,-0.013,-0.0167,-0.018,-0.0225,-0.0237,-0.0248,-0.0288,-0.0293,-0.0369,-0.0383,-0.0414,-0.05,-0.0515,-0.0532,-0.0514,-0.0665,-0.0667,-0.0668,-0.0656,-0.0658,-0.0659,0,0,0,0,0,-0.0115,-0.0121,-0.0188,-0.0168,-0.0179,-0.0232,-0.0237,-0.0246,-0.0281,-0.0341,-0.0355,-0.0311,-0.0412,-0.043,-0.0509,-0.0524,-0.0504,-0.051,-0.0666,-0.0667,-0.0668,-0.0657,0,0,0,0,0,0,-0.0117,-0.0131,-0.0191,-0.0197,-0.0168,-0.0232,-0.024,-0.0244,-0.0328,-0.0342,-0.0283,-0.0285,-0.0411,-0.0425,-0.0438,-0.0519,-0.0496,-0.0501,-0.0505,-0.0667,-0.0668,-0.0669,0,0,0,0,0,0,-0.0129,-0.0135,-0.0194,-0.0192,-0.0198,-0.0231,-0.0238,-0.0295,-0.033,-0.0266,-0.0271,-0.0283,-0.0407,-0.0422,-0.0432,-0.0518,-0.0489,-0.0495,-0.0498,-0.0501,-0.0668,-0.0669,0,0,0,0,0,0,-0.0133,-0.0139,-0.0191,-0.0195,-0.02,-0.0268,-0.0284,-0.0341,-0.0303,-0.0263,-0.0303,-0.0304,-0.0404,-0.0414,-0.0428,-0.0509,-0.0516,-0.049,-0.0493,-0.0496,-0.0497,0,0,0,0,0,0,0,-0.0136,-0.0081,-0.0159,-0.0198,-0.0202,-0.0252,-0.0254,-0.0255,-0.0303,-0.0303,-0.0303,-0.0304,-0.0459,-0.0465,-0.0471,-0.0502,0,0,-0.0489,-0.0492,0,0,0,0,0,0,0,0,-0.008,-0.0081,-0.0159,-0.016,-0.0161,-0.0252,-0.0254,-0.0255,-0.0303,-0.0303,-0.0303,-0.0304,-0.046,-0.0465,-0.047,0,0,0,0,0,0,0,0,0,0,0,0,0,0,0,-0.0159,-0.016,0,-0.0253,-0.0254,-0.0254,-0.0303,-0.0303,-0.0303,-0.0303,-0.0462,-0.0466,-0.047,0,0,0,0,0,0,0,0,0,0,0,0,0,0,0,0,0,0,0,0,0,0,0,0,0,0,0,0,0,0,0,0,0,0,0,0,0,0,0,0,0,0,0,0,0,0,0,0,0,0,0,0,0,0,0,0,0,0,0,0,0,0,0,0,0,0,0,0,0]}]]]